Time,TemperatureF,DewpointF,PressureIn,WindDirection,WindDirectionDegrees,WindSpeedMPH,WindSpeedGustMPH,Humidity,HourlyPrecipIn,Conditions,Clouds,dailyrainin,SolarRadiationWatts/m^2,SoftwareType,DateUTC
2013-03-03 00:00:00,24.0,15.0,-100.00,North,0,9.0,-999.0,67,-99.99,,,-99.99,0.000000,,2013-03-03 05:00:00,
2013-03-03 00:42:00,24.0,15.0,-100.00,North,0,9.0,-999.0,67,-99.99,,,-99.99,0.000000,,2013-03-03 05:42:00,
2013-03-03 00:52:00,24.0,15.0,-100.00,North,0,9.0,-999.0,67,-99.99,,,-99.99,0.000000,,2013-03-03 05:52:00,
2013-03-03 01:00:00,23.0,14.0,-100.00,North,0,6.0,-999.0,67,-99.99,,,-99.99,0.000000,,2013-03-03 06:00:00,
2013-03-03 01:32:00,23.0,14.0,-100.00,North,0,6.0,-999.0,67,-99.99,,,-99.99,0.000000,,2013-03-03 06:32:00,
2013-03-03 01:42:00,23.0,14.0,-100.00,North,0,6.0,-999.0,67,-99.99,,,-99.99,0.000000,,2013-03-03 06:42:00,
2013-03-03 01:52:00,23.0,14.0,-100.00,North,0,6.0,-999.0,67,-99.99,,,-99.99,0.000000,,2013-03-03 06:52:00,
2013-03-03 02:00:00,22.0,14.0,-100.00,NNE,22,6.0,-999.0,69,-99.99,,,-99.99,0.000000,,2013-03-03 07:00:00,
2013-03-03 02:42:00,22.0,14.0,-100.00,NNE,22,6.0,-999.0,69,-99.99,,,-99.99,0.000000,,2013-03-03 07:42:00,
2013-03-03 02:52:00,22.0,14.0,-100.00,NNE,22,6.0,-999.0,69,-99.99,,,-99.99,0.000000,,2013-03-03 07:52:00,
2013-03-03 03:00:00,21.0,13.0,-100.00,NNE,22,4.0,-999.0,71,-99.99,,,-99.99,0.000000,,2013-03-03 08:00:00,
2013-03-03 03:42:00,21.0,13.0,-100.00,NNE,22,4.0,-999.0,71,-99.99,,,-99.99,0.000000,,2013-03-03 08:42:00,
2013-03-03 03:54:00,21.0,13.0,-100.00,NNE,22,4.0,-999.0,71,-99.99,,,-99.99,0.000000,,2013-03-03 08:54:00,
2013-03-03 04:00:00,20.0,12.0,-100.00,NNE,22,3.0,-999.0,73,-99.99,,,-99.99,0.000000,,2013-03-03 09:00:00,
2013-03-03 04:42:00,20.0,12.0,-100.00,NNE,22,3.0,-999.0,73,-99.99,,,-99.99,0.000000,,2013-03-03 09:42:00,
2013-03-03 04:52:00,20.0,12.0,-100.00,NNE,22,3.0,-999.0,73,-99.99,,,-99.99,0.000000,,2013-03-03 09:52:00,
2013-03-03 05:00:00,17.0,11.0,-100.00,North,0,0.0,-999.0,79,-99.99,,,-99.99,0.000000,,2013-03-03 10:00:00,
2013-03-03 05:42:00,17.0,11.0,-100.00,North,0,0.0,-999.0,79,-99.99,,,-99.99,0.000000,,2013-03-03 10:42:00,
2013-03-03 05:52:00,17.0,11.0,-100.00,North,0,0.0,-999.0,79,-99.99,,,-99.99,0.000000,,2013-03-03 10:52:00,
2013-03-03 06:00:00,16.0,11.0,-100.00,North,0,1.0,-999.0,81,-99.99,,,-99.99,0.000000,,2013-03-03 11:00:00,
2013-03-03 06:42:00,16.0,11.0,-100.00,North,0,1.0,-999.0,81,-99.99,,,-99.99,0.000000,,2013-03-03 11:42:00,
2013-03-03 06:52:00,16.0,11.0,-100.00,North,0,1.0,-999.0,81,-99.99,,,-99.99,0.000000,,2013-03-03 11:52:00,
2013-03-03 07:00:00,16.0,11.0,-100.00,NNE,22,1.0,-999.0,82,-99.99,,,-99.99,0.000000,,2013-03-03 12:00:00,
2013-03-03 07:43:00,16.0,11.0,-100.00,NNE,22,1.0,-999.0,82,-99.99,,,-99.99,0.000000,,2013-03-03 12:43:00,
2013-03-03 07:53:00,16.0,11.0,-100.00,NNE,22,1.0,-999.0,82,-99.99,,,-99.99,0.000000,,2013-03-03 12:53:00,
2013-03-03 08:00:00,18.0,12.0,-100.00,NNW,337,1.0,-999.0,77,-99.99,,,-99.99,20.879999,,2013-03-03 13:00:00,
2013-03-03 08:42:00,18.0,12.0,-100.00,NNW,337,1.0,-999.0,77,-99.99,,,-99.99,20.879999,,2013-03-03 13:42:00,
2013-03-03 08:52:00,18.0,12.0,-100.00,NNW,337,1.0,-999.0,77,-99.99,,,-99.99,20.879999,,2013-03-03 13:52:00,
2013-03-03 09:00:00,21.0,12.0,-100.00,North,0,2.0,-999.0,69,-99.99,,,-99.99,106.720001,,2013-03-03 14:00:00,
2013-03-03 09:42:00,21.0,12.0,-100.00,North,0,2.0,-999.0,69,-99.99,,,-99.99,106.720001,,2013-03-03 14:42:00,
2013-03-03 09:52:00,21.0,12.0,-100.00,North,0,2.0,-999.0,69,-99.99,,,-99.99,106.720001,,2013-03-03 14:52:00,
2013-03-03 10:00:00,25.0,12.0,-100.00,NNE,22,4.0,-999.0,57,-99.99,,,-99.99,273.760010,,2013-03-03 15:00:00,
2013-03-03 10:42:00,25.0,12.0,-100.00,NNE,22,4.0,-999.0,57,-99.99,,,-99.99,273.760010,,2013-03-03 15:42:00,
2013-03-03 10:52:00,25.0,12.0,-100.00,NNE,22,4.0,-999.0,57,-99.99,,,-99.99,273.760010,,2013-03-03 15:52:00,
2013-03-03 11:00:00,29.0,13.0,-100.00,NNW,337,3.0,-999.0,50,-99.99,,,-99.99,380.480011,,2013-03-03 16:00:00,
2013-03-03 11:42:00,29.0,13.0,-100.00,NNW,337,3.0,-999.0,50,-99.99,,,-99.99,380.480011,,2013-03-03 16:42:00,
2013-03-03 11:52:00,29.0,13.0,-100.00,NNW,337,3.0,-999.0,50,-99.99,,,-99.99,380.480011,,2013-03-03 16:52:00,
2013-03-03 12:00:00,32.0,14.0,-100.00,NW,315,2.0,-999.0,46,-99.99,,,-99.99,425.720001,,2013-03-03 17:00:00,
2013-03-03 12:42:00,32.0,14.0,-100.00,NW,315,2.0,-999.0,46,-99.99,,,-99.99,425.720001,,2013-03-03 17:42:00,
2013-03-03 12:52:00,32.0,14.0,-100.00,NW,315,2.0,-999.0,46,-99.99,,,-99.99,425.720001,,2013-03-03 17:52:00,
2013-03-03 13:00:00,31.0,14.0,-100.00,NW,315,10.0,-999.0,49,-99.99,,,-99.99,540.559998,,2013-03-03 18:00:00,
2013-03-03 13:42:00,31.0,14.0,-100.00,NW,315,10.0,-999.0,49,-99.99,,,-99.99,540.559998,,2013-03-03 18:42:00,
2013-03-03 13:52:00,31.0,14.0,-100.00,NW,315,10.0,-999.0,49,-99.99,,,-99.99,540.559998,,2013-03-03 18:52:00,
2013-03-03 14:00:00,30.0,14.0,-100.00,NW,315,12.0,-999.0,49,-99.99,,,-99.99,602.039978,,2013-03-03 19:00:00,
2013-03-03 14:42:00,30.0,14.0,-100.00,NW,315,12.0,-999.0,49,-99.99,,,-99.99,602.039978,,2013-03-03 19:42:00,
2013-03-03 14:52:00,30.0,14.0,-100.00,NW,315,12.0,-999.0,49,-99.99,,,-99.99,602.039978,,2013-03-03 19:52:00,
2013-03-03 15:00:00,31.0,13.0,-100.00,NW,315,11.0,-999.0,47,-99.99,,,-99.99,651.919983,,2013-03-03 20:00:00,
2013-03-03 15:43:00,31.0,13.0,-100.00,NW,315,11.0,-999.0,47,-99.99,,,-99.99,651.919983,,2013-03-03 20:43:00,
2013-03-03 15:53:00,31.0,13.0,-100.00,NW,315,11.0,-999.0,47,-99.99,,,-99.99,651.919983,,2013-03-03 20:53:00,
2013-03-03 16:00:00,30.0,14.0,-100.00,NW,315,12.0,-999.0,51,-99.99,,,-99.99,532.440002,,2013-03-03 21:00:00,
2013-03-03 16:42:00,30.0,14.0,-100.00,NW,315,12.0,-999.0,51,-99.99,,,-99.99,532.440002,,2013-03-03 21:42:00,
2013-03-03 16:52:00,30.0,14.0,-100.00,NW,315,12.0,-999.0,51,-99.99,,,-99.99,532.440002,,2013-03-03 21:52:00,
2013-03-03 17:00:00,29.0,14.0,-100.00,NW,315,11.0,-999.0,52,-99.99,,,-99.99,356.119995,,2013-03-03 22:00:00,
2013-03-03 17:32:00,29.0,14.0,-100.00,NW,315,11.0,-999.0,52,-99.99,,,-99.99,356.119995,,2013-03-03 22:32:00,
2013-03-03 17:42:00,29.0,14.0,-100.00,NW,315,11.0,-999.0,52,-99.99,,,-99.99,356.119995,,2013-03-03 22:42:00,
2013-03-03 17:52:00,29.0,14.0,-100.00,NW,315,11.0,-999.0,52,-99.99,,,-99.99,356.119995,,2013-03-03 22:52:00,
2013-03-03 18:00:00,27.0,14.0,-100.00,NW,315,10.0,-999.0,58,-99.99,,,-99.99,84.680000,,2013-03-03 23:00:00,
2013-03-03 18:42:00,27.0,14.0,-100.00,NW,315,10.0,-999.0,58,-99.99,,,-99.99,84.680000,,2013-03-03 23:42:00,
2013-03-03 18:52:00,27.0,14.0,-100.00,NW,315,10.0,-999.0,58,-99.99,,,-99.99,84.680000,,2013-03-03 23:52:00,
2013-03-03 20:00:00,25.0,15.0,-100.00,NW,315,8.0,-999.0,64,-99.99,,,-99.99,0.000000,,2013-03-04 01:00:00,
2013-03-03 20:32:00,25.0,15.0,-100.00,NW,315,8.0,-999.0,64,-99.99,,,-99.99,0.000000,,2013-03-04 01:32:00,
2013-03-03 20:42:00,25.0,15.0,-100.00,NW,315,8.0,-999.0,64,-99.99,,,-99.99,0.000000,,2013-03-04 01:42:00,
2013-03-03 20:52:00,25.0,15.0,-100.00,NW,315,8.0,-999.0,64,-99.99,,,-99.99,0.000000,,2013-03-04 01:52:00,
2013-03-03 21:00:00,24.0,14.0,-100.00,NW,315,7.0,-999.0,65,-99.99,,,-99.99,0.000000,,2013-03-04 02:00:00,
2013-03-03 21:42:00,24.0,14.0,-100.00,NW,315,7.0,-999.0,65,-99.99,,,-99.99,0.000000,,2013-03-04 02:42:00,
2013-03-03 21:52:00,24.0,14.0,-100.00,NW,315,7.0,-999.0,65,-99.99,,,-99.99,0.000000,,2013-03-04 02:52:00,
2013-03-03 22:00:00,23.0,14.0,-100.00,NNW,337,5.0,-999.0,67,-99.99,,,-99.99,0.000000,,2013-03-04 03:00:00,
2013-03-03 22:32:00,23.0,14.0,-100.00,NNW,337,5.0,-999.0,67,-99.99,,,-99.99,0.000000,,2013-03-04 03:32:00,
2013-03-03 22:42:00,23.0,14.0,-100.00,NNW,337,5.0,-999.0,67,-99.99,,,-99.99,0.000000,,2013-03-04 03:42:00,
2013-03-03 22:52:00,23.0,14.0,-100.00,NNW,337,5.0,-999.0,67,-99.99,,,-99.99,0.000000,,2013-03-04 03:52:00,
2013-03-03 23:00:00,23.0,14.0,-100.00,NNW,337,5.0,-999.0,69,-99.99,,,-99.99,0.000000,,2013-03-04 04:00:00,
2013-03-03 23:32:00,23.0,14.0,-100.00,NNW,337,5.0,-999.0,69,-99.99,,,-99.99,0.000000,,2013-03-04 04:32:00,
2013-03-03 23:42:00,23.0,14.0,-100.00,NNW,337,5.0,-999.0,69,-99.99,,,-99.99,0.000000,,2013-03-04 04:42:00,
2013-03-03 23:52:00,23.0,14.0,-100.00,NNW,337,5.0,-999.0,69,-99.99,,,-99.99,0.000000,,2013-03-04 04:52:00,